Zurück zum Katalog

CZ-6A DEB

AktivSSO
NORAD 54501·DEBRIS·🇨🇳 China

Gestartet Nov 11, 2022 von Taiyuan Satellite Launch Center

Loading…

Nächste Überflüge (nächste 24 Stunden)

TLE

AktuellSource: Space-Track

Epoche: Sep 14, 2026, 11:09 UTC

1 54501U 22151JD  26257.46462514  .00001991  00000-0  57996-3 0  9999
2 54501  98.6613 265.8972 0194338 219.0989 139.6017 14.34951212199575

Verfolge CZ-6A DEB in Echtzeit mit AllMySat

Download on the App Store